W3ADC Weather Reports


Display with metric or nautical units.
time (UTC)temp
F
wind
direction
speed
MPH
gust
MPH
rain 1hr
in
rain 24hr
in
rain mn
in
humidity
%
barometer
mb
20260504190541 71 168 2.0 12.0 0.00 0.00 0.00 41 1009.5
20260504190049 71 225 4.0 12.0 0.00 0.00 0.00 40 1009.6
20260504185541 71 258 3.0 11.0 0.00 0.00 0.00 39 1009.6
20260504185042 71 228 4.0 13.0 0.00 0.00 0.00 41 1009.7
20260504184551 70 231 4.0 13.0 0.00 0.00 0.00 42 1009.9
20260504184041 70 227 5.0 13.0 0.00 0.00 0.00 42 1010.1
20260504183543 70 236 3.0 11.0 0.00 0.00 0.00 42 1010.2
20260504183047 70 214 3.0 12.0 0.00 0.00 0.00 42 1010.3
20260504182542 70 244 4.0 12.0 0.00 0.00 0.00 42 1010.4
20260504182042 70 229 5.0 12.0 0.00 0.00 0.00 45 1010.4
20260504181552 70 234 4.0 12.0 0.00 0.00 0.00 42 1010.6
20260504181043 70 244 4.0 9.0 0.00 0.00 0.00 43 1010.5
20260504180541 69 226 3.0 9.0 0.00 0.00 0.00 43 1010.6
20260504180054 69 212 2.0 14.0 0.00 0.00 0.00 41 1010.6
20260504175540 69 265 3.0 14.0 0.00 0.00 0.00 44 1010.6
20260504175041 69 196 4.0 14.0 0.00 0.00 0.00 43 1010.7
20260504174554 68 178 3.0 14.0 0.00 0.00 0.00 46 1010.6
20260504174040 68 211 2.0 11.0 0.00 0.00 0.00 46 1010.7
20260504173542 69 182 2.0 7.0 0.00 0.00 0.00 45 1010.7
20260504173052 69 210 3.0 13.0 0.00 0.00 0.00 40 1010.7
20260504172541 69 200 3.0 13.0 0.00 0.00 0.00 44 1010.8
20260504172043 69 229 2.0 7.0 0.00 0.00 0.00 41 1010.8
20260504171555 68 234 2.0 13.0 0.00 0.00 0.00 43 1010.9
20260504171041 68 203 2.0 14.0 0.00 0.00 0.00 43 1010.9
20260504170544 67 225 6.0 14.0 0.00 0.00 0.00 41 1011.1
20260504151040 64 217 2.0 9.0 0.00 0.00 0.00 42 1012.7
20260504150541 64 214 3.0 9.0 0.00 0.00 0.00 44 1012.6
20260504141043 62 217 2.0 6.0 0.00 0.00 0.00 43 1012.7
20260504140541 61 210 2.0 7.0 0.00 0.00 0.00 43 1012.8
20260504130543 57 202 3.0 11.0 0.00 0.00 0.00 50 1012.8
20260504120117 52 190 2.0 7.0 0.00 0.00 0.00 57 1013.0
20260504110541 48 205 2.0 6.0 0.00 0.00 0.00 57 1013.0
20260504100541 48 165 3.0 5.0 0.00 0.00 0.00 53 1013.2
20260504081554 47 208 1.0 3.0 0.00 0.00 0.00 53 1013.6
20260504081042 47 208 1.0 5.0 0.00 0.00 0.00 53 1013.5
20260504080541 47 203 2.0 5.0 0.00 0.00 0.00 53 1013.6
20260504050541 48 192 3.0 5.0 0.00 0.00 0.00 51 1014.0
20260504045541 48 180 2.0 5.0 0.00 0.00 0.00 51 1014.0
20260504045041 48 154 3.0 5.0 0.00 0.00 0.00 51 1014.1
20260504044553 48 186 2.0 5.0 0.00 0.00 0.00 51 1014.0
20260504044041 48 184 1.0 4.0 0.00 0.00 0.00 52 1014.0
20260504043542 48 194 1.0 4.0 0.00 0.00 0.00 52 1014.0
20260504043110 48 205 2.0 4.0 0.00 0.00 0.00 52 1013.9
20260504042541 48 187 2.0 4.0 0.00 0.00 0.00 52 1013.9
20260504042040 48 194 2.0 4.0 0.00 0.00 0.00 51 1014.0
20260504041547 48 189 2.0 4.0 0.00 0.00 0.00 51 1014.0
20260504041040 48 196 1.0 4.0 0.00 0.00 0.00 51 1013.9
20260504040541 48 198 1.0 4.0 0.00 0.00 0.00 52 1013.8
20260504040055 48 208 2.0 4.0 0.00 0.00 0.00 52 1013.9
20260504035542 48 205 2.0 6.0 0.00 0.00 0.00 52 1013.9
20260504035042 48 188 3.0 6.0 0.00 0.00 0.00 51 1013.9
20260504034551 48 186 4.0 6.0 0.00 0.00 0.00 51 1013.8
20260504034041 48 184 3.0 5.0 0.00 0.00 0.00 51 1013.8
20260504033541 48 194 3.0 5.0 0.00 0.00 0.00 51 1013.8
20260504033101 49 184 2.0 5.0 0.00 0.00 0.00 51 1013.8
20260504032541 49 196 3.0 5.0 0.00 0.00 0.00 51 1013.8
20260504032041 49 185 2.0 5.0 0.00 0.00 0.00 50 1013.8
20260504031556 49 191 2.0 5.0 0.00 0.00 0.00 51 1013.7
20260504031041 48 202 1.0 3.0 0.00 0.00 0.00 51 1013.6
20260504030541 48 192 1.0 3.0 0.00 0.00 0.00 52 1013.7
20260504025541 49 196 0.0 2.0 0.00 0.00 0.00 51 1013.6
20260504025042 49 198 0.0 3.0 0.00 0.00 0.00 52 1013.6
20260504024547 49 193 1.0 3.0 0.00 0.00 0.00 50 1013.6
20260504024041 49 196 0.0 4.0 0.00 0.00 0.00 50 1013.5
20260504023541 49 196 1.0 4.0 0.00 0.00 0.00 50 1013.6
20260504023044 49 177 1.0 3.0 0.00 0.00 0.00 50 1013.6
20260504022543 49 173 0.0 3.0 0.00 0.00 0.00 51 1013.5
20260504022042 50 182 0.0 3.0 0.00 0.00 0.00 50 1013.5
20260504021552 50 0 1.0 3.0 0.00 0.00 0.00 49 1013.4
20260504021043 50 0 1.0 3.0 0.00 0.00 0.00 49 1013.5
20260504020542 49 186 1.0 3.0 0.00 0.00 0.00 51 1013.5
20260504020105 49 158 1.0 3.0 0.00 0.00 0.00 51 1013.5
20260504015541 49 150 1.0 4.0 0.00 0.00 0.00 52 1013.5
20260504015041 50 148 1.0 4.0 0.00 0.00 0.00 52 1013.4
20260504014605 50 183 0.0 2.0 0.00 0.00 0.00 50 1013.4
20260504014040 51 0 0.0 1.0 0.00 0.00 0.00 48 1013.4
20260504013545 51 0 0.0 1.0 0.00 0.00 0.00 48 1013.3
20260504013055 51 0 0.0 2.0 0.00 0.00 0.00 47 1013.4
20260504012541 51 0 0.0 3.0 0.00 0.00 0.00 47 1013.3
20260504012041 51 0 0.0 3.0 0.00 0.00 0.00 47 1013.3
20260504011552 51 189 1.0 3.0 0.00 0.00 0.00 47 1013.2
20260504011044 51 198 1.0 2.0 0.00 0.00 0.00 48 1013.2
20260504010541 51 198 1.0 2.0 0.00 0.00 0.00 48 1013.2
20260504010058 52 201 0.0 1.0 0.00 0.00 0.00 47 1013.3
20260504005541 52 0 0.0 1.0 0.00 0.00 0.00 47 1013.3
20260504005041 52 0 0.0 1.0 0.00 0.00 0.00 46 1013.1
20260504004548 52 0 0.0 2.0 0.00 0.00 0.00 47 1013.1
20260504004041 53 0 0.0 3.0 0.00 0.00 0.00 46 1013.0
20260504003541 53 0 1.0 3.0 0.00 0.00 0.00 45 1013.1
20260504003045 53 193 0.0 3.0 0.00 0.00 0.00 44 1013.0
20260504002540 53 0 0.0 0.0 0.00 0.00 0.00 44 1012.9
20260504002041 54 0 0.0 2.0 0.00 0.00 0.00 43 1012.9
20260504001553 54 0 0.0 2.0 0.00 0.00 0.00 43 1012.8
20260504001043 54 0 0.0 2.0 0.00 0.00 0.00 42 1012.8
20260504000541 55 290 0.0 2.0 0.00 0.00 0.00 42 1012.7
20260504000046 55 0 0.0 1.0 0.00 0.00 0.00 41 1012.7
20260503235541 55 0 0.0 2.0 0.00 0.00 0.00 41 1012.6
20260503235042 56 0 0.0 2.0 0.00 0.00 0.00 40 1012.6
20260503234550 56 290 1.0 5.0 0.00 0.00 0.00 40 1012.5
20260503234042 56 0 1.0 5.0 0.00 0.00 0.00 40 1012.4
20260503233542 56 286 2.0 9.0 0.00 0.00 0.00 39 1012.4
20260503233047 57 288 2.0 9.0 0.00 0.00 0.00 39 1012.4
20260503232543 57 275 3.0 8.0 0.00 0.00 0.00 38 1012.3
20260503232041 57 295 1.0 3.0 0.00 0.00 0.00 38 1012.2
20260503231552 57 283 1.0 3.0 0.00 0.00 0.00 38 1012.2
20260503231042 57 287 1.0 3.0 0.00 0.00 0.00 37 1012.2
20260503230541 57 275 1.0 9.0 0.00 0.00 0.00 37 1012.2
20260503230109 57 239 1.0 9.0 0.00 0.00 0.00 38 1012.3
20260503225542 57 254 3.0 8.0 0.00 0.00 0.00 39 1012.3
20260503225041 58 281 2.0 11.0 0.00 0.00 0.00 38 1012.3
20260503224550 58 274 2.0 11.0 0.00 0.00 0.00 38 1012.4
20260503224043 58 288 4.0 11.0 0.00 0.00 0.00 37 1012.5
20260503223541 58 278 3.0 11.0 0.00 0.00 0.00 38 1012.4
20260503223102 58 312 6.0 12.0 0.00 0.00 0.00 37 1012.4
20260503222543 58 308 6.0 15.0 0.00 0.00 0.00 35 1012.4
20260503222040 58 316 5.0 15.0 0.00 0.00 0.00 37 1012.4
20260503221552 58 275 5.0 10.0 0.00 0.00 0.00 35 1012.3
20260503221040 58 337 3.0 13.0 0.00 0.00 0.00 37 1012.4
20260503220541 58 277 4.0 17.0 0.00 0.00 0.00 37 1012.4
20260503220055 58 304 3.0 17.0 0.00 0.00 0.00 36 1012.6
20260503215540 58 304 6.0 20.0 0.00 0.00 0.00 35 1012.4
20260503215041 58 269 7.0 20.0 0.00 0.00 0.00 35 1012.4
20260503214556 58 316 5.0 13.0 0.00 0.00 0.00 37 1012.6
20260503214041 58 213 2.0 9.0 0.00 0.00 0.00 37 1012.4
20260503213542 58 280 2.0 14.0 0.00 0.00 0.00 37 1012.4
20260503213051 58 275 2.0 14.0 0.00 0.00 0.00 39 1012.4
20260503212541 58 329 4.0 12.0 0.00 0.00 0.00 36 1012.5
20260503212040 58 300 6.0 12.0 0.00 0.00 0.00 37 1012.5
20260503211552 58 279 7.0 12.0 0.00 0.00 0.00 38 1012.4
20260503211040 58 321 3.0 15.0 0.00 0.00 0.00 36 1012.3
20260503210541 57 336 6.0 15.0 0.00 0.00 0.00 36 1012.3
20260503210051 57 305 5.0 13.0 0.00 0.00 0.00 35 1012.3
20260503205541 57 283 2.0 17.0 0.00 0.00 0.00 37 1012.2
20260503205041 57 284 7.0 17.0 0.00 0.00 0.00 34 1012.4
20260503204551 58 286 9.0 16.0 0.00 0.00 0.00 35 1012.3
20260503204041 58 304 7.0 16.0 0.00 0.00 0.00 34 1012.3
20260503203540 58 298 6.0 13.0 0.00 0.00 0.00 35 1012.4
20260503203049 57 323 6.0 13.0 0.00 0.00 0.00 34 1012.4
20260503202541 57 290 3.0 11.0 0.00 0.00 0.00 37 1012.4
20260503202041 57 284 2.0 15.0 0.00 0.00 0.00 35 1012.4
20260503201554 58 302 8.0 15.0 0.00 0.00 0.00 34 1012.4
20260503201041 58 311 3.0 15.0 0.00 0.00 0.00 34 1012.4
20260503200540 58 256 2.0 15.0 0.00 0.00 0.00 36 1012.4
20260503200053 57 269 7.0 18.0 0.00 0.00 0.00 34 1012.7
20260503195540 57 320 9.0 18.0 0.00 0.00 0.00 34 1012.5
20260503195041 57 309 10.0 16.0 0.00 0.00 0.00 34 1012.8
20260503194616 57 313 7.0 16.0 0.00 0.00 0.00 34 1012.8
20260503194044 57 312 11.0 16.0 0.00 0.00 0.00 34 1012.7
20260503193542 57 289 6.0 18.0 0.00 0.00 0.00 34 1012.9
20260503193053 56 310 8.0 18.0 0.00 0.00 0.00 34 1013.0
20260503192541 57 250 7.0 15.0 0.00 0.00 0.00 34 1012.9
20260503192041 57 317 8.0 14.0 0.00 0.00 0.00 36 1013.1
20260503191554 56 270 1.0 14.0 0.00 0.00 0.00 37 1013.0
20260503191041 57 268 8.0 16.0 0.00 0.00 0.00 35 1013.2